KC7VZS Weather Reports


time (UTC)temp
F
wind
direction
speed
knots
gust
knots
rain 1hr
in
rain 24hr
in
rain mn
in
humidity
%
barometer
mb
20260502123021 49 67 2.6 9.6 0.00 0.00 0.00 55 868.3
20260502121524 49 54 6.1 8.7 0.00 0.00 0.00 54 868.4
20260502114511 47 66 1.7 7.0 0.00 0.00 0.00 53 868.3
20260502113011 46 23 0.0 2.6 0.00 0.00 0.00 54 868.2
20260502111510 47 62 0.0 2.6 0.00 0.00 0.00 54 868.3
20260502110009 46 46 2.6 6.1 0.00 0.00 0.00 55 868.3
20260502104514 47 71 0.0 3.5 0.00 0.00 0.00 55 868.2
20260502103007 47 59 0.0 4.3 0.00 0.00 0.00 56 868.2
20260502101510 46 62 0.9 4.3 0.00 0.00 0.00 56 868.2
20260502091504 43 75 0.0 0.0 0.00 0.00 0.00 64 868.0
20260502070110 45 88 0.0 2.6 0.00 0.00 0.00 59 868.2
20260502064551 46 126 0.0 1.7 0.00 0.00 0.00 55 868.2
20260502063050 47 113 0.9 2.6 0.00 0.00 0.00 52 868.1
20260502061545 47 50 0.0 0.9 0.00 0.00 0.00 53 868.1
20260502060045 48 200 0.0 0.0 0.00 0.00 0.00 51 868.0
20260502054541 49 200 0.0 0.0 0.00 0.00 0.00 49 867.9
20260502053040 50 200 0.0 0.9 0.00 0.00 0.00 47 867.8
20260502051551 51 200 0.0 0.0 0.00 0.00 0.00 45 867.8
20260502050044 51 200 0.0 0.0 0.00 0.00 0.00 43 867.8
20260502044543 52 200 0.0 0.0 0.00 0.00 0.00 40 867.7
20260502043041 53 200 0.0 0.0 0.00 0.00 0.00 42 867.8
20260502041537 55 200 0.0 0.9 0.00 0.00 0.00 35 867.6
20260502040037 56 200 0.0 0.9 0.00 0.00 0.00 34 867.4
20260502034536 57 200 0.0 1.7 0.00 0.00 0.00 32 867.3
20260502033035 57 200 0.0 1.7 0.00 0.00 0.00 33 867.1
20260502031536 57 200 0.0 0.0 0.00 0.00 0.00 32 867.0
20260502030041 58 200 0.0 0.0 0.00 0.00 0.00 32 866.6
20260502024535 59 200 0.0 0.0 0.00 0.00 0.00 30 866.5
20260502023034 60 200 0.0 1.7 0.00 0.00 0.00 30 866.3
20260502021533 61 200 0.9 2.6 0.00 0.00 0.00 29 866.3
20260502020033 62 179 1.7 3.5 0.00 0.00 0.00 29 866.2
20260502014535 62 178 1.7 4.3 0.00 0.00 0.00 28 866.1
20260502013032 63 179 0.9 4.3 0.00 0.00 0.00 28 866.0
20260502011532 63 180 2.6 6.1 0.00 0.00 0.00 28 865.9
20260502010031 64 192 0.9 6.1 0.00 0.00 0.00 28 865.9
20260502004530 64 267 1.7 6.1 0.00 0.00 0.00 28 865.9
20260502003029 64 235 1.7 6.1 0.00 0.00 0.00 27 865.9
20260502001529 65 182 1.7 7.8 0.00 0.00 0.00 27 866.0
20260502000029 65 197 1.7 6.1 0.00 0.00 0.00 27 866.1
20260501234535 65 171 2.6 8.7 0.00 0.00 0.00 27 866.1
20260501233029 65 198 1.7 8.7 0.00 0.00 0.00 26 866.1
20260501231526 65 261 1.7 7.8 0.00 0.00 0.00 26 866.1
20260501230026 66 196 1.7 6.1 0.00 0.00 0.00 24 866.1
20260501224528 66 244 0.9 8.7 0.00 0.00 0.00 25 866.2
20260501223024 66 185 2.6 7.8 0.00 0.00 0.00 24 866.3
20260501221524 66 120 2.6 6.1 0.00 0.00 0.00 24 866.5
20260501220023 66 286 1.7 6.1 0.00 0.00 0.00 24 866.5
20260501214536 66 96 0.9 4.3 0.00 0.00 0.00 25 866.6
20260501213022 66 208 3.5 7.8 0.00 0.00 0.00 25 866.8
20260501211521 66 215 1.7 7.0 0.00 0.00 0.00 24 866.9
20260501210021 66 38 0.9 3.5 0.00 0.00 0.00 25 866.9
20260501204518 66 175 0.9 4.3 0.00 0.00 0.00 26 866.9
20260501203017 66 304 3.5 7.0 0.00 0.00 0.00 24 867.1
20260501201516 65 189 1.7 5.2 0.00 0.00 0.00 26 867.0
20260501200016 65 210 1.7 6.1 0.00 0.00 0.00 25 867.1
20260501194515 65 305 1.7 5.2 0.00 0.00 0.00 25 867.3
20260501193013 64 190 0.9 6.1 0.00 0.00 0.00 25 867.4
20260501191513 65 250 1.7 6.1 0.00 0.00 0.00 26 867.5
20260501190028 64 82 0.0 3.5 0.00 0.00 0.00 25 867.6
20260501184513 64 195 1.7 4.3 0.00 0.00 0.00 25 867.8
20260501183008 64 209 1.7 5.2 0.00 0.00 0.00 26 867.9
20260501181513 63 311 3.5 6.1 0.00 0.00 0.00 25 868.0
20260501180003 62 157 1.7 5.2 0.00 0.00 0.00 30 868.2
20260501174559 61 5 0.0 4.3 0.00 0.00 0.00 32 868.3
20260501173110 61 199 0.0 5.2 0.00 0.00 0.00 32 868.4
20260501171551 61 177 3.5 7.0 0.00 0.00 0.00 32 868.4
20260501170047 60 189 0.9 4.3 0.00 0.00 0.00 33 868.5
20260501164548 59 138 0.0 3.5 0.00 0.00 0.00 35 868.5
20260501163039 58 187 1.7 4.3 0.00 0.00 0.00 36 868.5
20260501161536 58 148 0.0 4.3 0.00 0.00 0.00 39 868.4
20260501160034 56 188 0.0 3.5 0.00 0.00 0.00 40 868.4
20260501154526 55 178 0.9 3.5 0.00 0.00 0.00 43 868.4
20260501153047 55 186 0.0 3.5 0.00 0.00 0.00 45 868.4
20260501151518 53 300 0.0 3.5 0.00 0.00 0.00 45 868.5